Stations météo

Publicité
Geilenkirchen, Allemagne (10500): Température de l'air & dewpoint: 17.09.2018 17:00:00 - 23.09.2018 17:00:00 (CEST)Geilenkirchen, Allemagne (10500): Vitesse du vent & gusts: 17.09.2018 17:00:00 - 23.09.2018 17:00:00 (CEST)Geilenkirchen, Allemagne (10500): Direction du vent: 17.09.2018 17:00:00 - 23.09.2018 17:00:00 (CEST)Geilenkirchen, Allemagne (10500): reduced air pressure: 17.09.2018 17:00:00 - 23.09.2018 17:00:00 (CEST)Geilenkirchen, Allemagne (10500): visibility: 17.09.2018 17:00:00 - 23.09.2018 17:00:00 (CEST)
Date & Time tt [°C] td [°C] ff [km/h] ff [knt] fx [km/h] fx [knt] dd ppp [hPa] vv [km]
23.09.2018 17:00:00 - - - - - - - - -
23.09.2018 16:00:00 - - - - - - - - -
23.09.2018 15:00:00 - - - - - - - - -
23.09.2018 14:00:00 - - - - - - - - -
23.09.2018 13:00:00 - - - - - - - - -
23.09.2018 12:00:00 - - - - - - - - -
23.09.2018 11:00:00 - - - - - - - - -
23.09.2018 10:00:00 - - - - - - - - -
23.09.2018 09:00:00 - - - - - - - - -
23.09.2018 08:00:00 - - - - - - - - -
23.09.2018 07:00:00 - - - - - - - - -
23.09.2018 06:00:00 - - - - - - - - -
23.09.2018 05:00:00 - - - - - - - - -
23.09.2018 04:00:00 - - - - - - - - -
23.09.2018 03:00:00 - - - - - - - - -
23.09.2018 02:00:00 - - - - - - - - -
23.09.2018 01:00:00 - - - - - - - - -
23.09.2018 00:00:00 - - - - - - - - -
22.09.2018 23:00:00 - - - - - - - - -
22.09.2018 22:00:00 - - - - - - - - -
22.09.2018 21:00:00 - - - - - - - - -
22.09.2018 20:00:00 - - - - - - - - -
22.09.2018 19:00:00 - - - - - - - - -
22.09.2018 18:00:00 - - - - - - - - -
22.09.2018 17:00:00 - - - - - - - - -
22.09.2018 16:00:00 - - - - - - - - -
22.09.2018 15:00:00 - - - - - - - - -
22.09.2018 14:00:00 - - - - - - - - -
22.09.2018 13:00:00 - - - - - - - - -
22.09.2018 12:00:00 - - - - - - - - -
22.09.2018 11:00:00 - - - - - - - - -
22.09.2018 10:00:00 - - - - - - - - -
22.09.2018 09:00:00 - - - - - - - - -
22.09.2018 08:00:00 - - - - - - - - -
22.09.2018 07:00:00 - - - - - - - - -
22.09.2018 06:00:00 - - - - - - - - -
22.09.2018 05:00:00 - - - - - - - - -
22.09.2018 04:00:00 - - - - - - - - -
22.09.2018 03:00:00 - - - - - - - - -
22.09.2018 02:00:00 - - - - - - - - -
22.09.2018 01:00:00 - - - - - - - - -
22.09.2018 00:00:00 - - - - - - - - -
21.09.2018 23:00:00 - - - - - - - - -
21.09.2018 22:00:00 - - - - - - - - -
21.09.2018 21:00:00 - - - - - - - - -
21.09.2018 20:00:00 - - - - - - - - -
21.09.2018 19:00:00 - - - - - - - - -
21.09.2018 18:00:00 17,1 4,2 35 19 54 29 WSW 1012,4 10
21.09.2018 17:00:00 16,1 5,3 29 16 - - W 1012,0 10
21.09.2018 16:00:00 16,1 6,1 39 21 58 31 W 1011,2 10
21.09.2018 15:00:00 16,2 6,9 31 17 54 29 W 1010,3 10
21.09.2018 14:00:00 15,8 8,0 39 21 - - W 1009,2 10
21.09.2018 13:00:00 16,2 11,6 22 12 - - WSW 1008,1 10
21.09.2018 12:00:00 14,3 11,7 16 9 - - SW 1008,1 10
21.09.2018 11:00:00 13,6 11,6 26 14 - - WSW 1007,7 8
21.09.2018 10:00:00 20,4 12,8 26 14 54 29 SW 1004,1 6
21.09.2018 09:00:00 21,2 10,9 24 13 58 31 SW 1004,3 10
21.09.2018 08:00:00 21,9 9,4 26 14 - - SW 1003,8 10
21.09.2018 07:00:00 21,9 11,3 16 9 50 27 SW 1004,4 10
21.09.2018 06:00:00 21,8 11,8 16 9 - - SSW 1004,8 10
21.09.2018 05:00:00 22,1 11,7 18 10 - - SSW 1005,5 10
21.09.2018 04:00:00 21,5 12,0 11 6 - - SW 1007,0 10
21.09.2018 03:00:00 21,8 12,6 11 6 - - SSW 1007,8 10
21.09.2018 02:00:00 22,0 12,1 15 8 - - SW 1008,5 10
21.09.2018 01:00:00 22,3 12,6 15 8 - - SW 1009,0 10
21.09.2018 00:00:00 21,9 11,9 11 6 - - SSW 1009,8 10
20.09.2018 23:00:00 21,6 11,4 11 6 - - SW 1011,1 10
20.09.2018 22:00:00 22,3 10,7 9 5 - - SSW 1011,5 10
20.09.2018 21:00:00 23,1 10,4 8 4 - - SSW 1012,1 10
20.09.2018 20:00:00 23,7 11,5 5 3 - - S 1012,5 10
20.09.2018 19:00:00 25,1 11,7 8 4 - - SW 1013,0 10
20.09.2018 18:00:00 25,7 11,6 15 8 - - SW 1013,8 10
20.09.2018 17:00:00 25,7 11,8 18 10 - - SSW 1014,5 10
20.09.2018 16:00:00 25,6 12,1 21 11 - - SW 1015,4 10
20.09.2018 15:00:00 24,4 12,3 15 8 - - SW 1016,0 10
20.09.2018 14:00:00 23,5 12,7 22 12 - - WSW 1016,8 10
20.09.2018 13:00:00 23,0 13,1 24 13 - - WSW 1017,3 10
20.09.2018 12:00:00 21,8 13,1 22 12 - - SW 1017,7 10
20.09.2018 11:00:00 21,0 13,4 21 11 - - WSW 1018,0 10
20.09.2018 10:00:00 20,2 13,0 11 6 - - SW 1018,0 10
20.09.2018 09:00:00 19,2 12,6 11 6 - - SW 1018,0 10
20.09.2018 08:00:00 18,0 12,3 9 5 - - SSW 1017,9 10
20.09.2018 07:00:00 17,8 12,2 11 6 - - SSW 1017,9 15
20.09.2018 06:00:00 18,1 12,3 8 4 - - S 1017,9 10
20.09.2018 05:00:00 18,2 12,1 8 4 - - S 1017,9 10
20.09.2018 04:00:00 18,0 12,0 8 4 - - SSW 1018,2 10
20.09.2018 03:00:00 17,7 12,1 8 4 - - S 1018,0 10
20.09.2018 02:00:00 18,4 12,1 9 5 - - S 1018,4 10
20.09.2018 01:00:00 19,4 12,1 8 4 - - S 1018,9 10
20.09.2018 00:00:00 19,5 12,3 9 5 - - SSW 1019,1 10
19.09.2018 23:00:00 20,1 12,1 8 4 - - SW 1018,9 10
19.09.2018 22:00:00 20,6 12,0 9 5 - - WSW 1018,7 10
19.09.2018 21:00:00 21,9 11,6 8 4 - - WSW 1018,0 10
19.09.2018 20:00:00 23,2 11,6 18 10 - - W 1017,4 10
19.09.2018 19:00:00 25,2 12,4 26 14 - - W 1016,9 10
19.09.2018 18:00:00 26,9 13,2 22 12 47 25 WSW 1016,2 10
19.09.2018 17:00:00 27,3 13,4 18 10 - - SW 1016,1 10
19.09.2018 16:00:00 27,2 13,9 26 14 54 29 WSW 1016,1 10
19.09.2018 15:00:00 26,8 14,0 26 14 50 27 WSW 1016,6 10
19.09.2018 14:00:00 26,0 14,7 24 13 - - WSW 1016,8 10
19.09.2018 13:00:00 25,4 15,1 21 11 54 29 SW 1016,9 10
19.09.2018 12:00:00 24,1 16,3 18 10 54 29 WSW 1016,9 10
19.09.2018 11:00:00 24,0 15,9 18 10 - - WSW 1017,0 10
19.09.2018 10:00:00 21,8 15,6 11 6 - - SSW 1017,1 10
19.09.2018 09:00:00 20,2 15,3 9 5 - - S 1016,8 10
19.09.2018 08:00:00 17,6 14,5 11 6 - - S 1017,1 10
19.09.2018 07:00:00 17,2 13,9 11 6 - - S 1017,3 10
19.09.2018 06:00:00 16,7 13,0 11 6 - - S 1017,4 10
19.09.2018 05:00:00 16,5 12,9 9 5 - - S 1017,5 10
19.09.2018 04:00:00 13,8 12,3 8 4 - - SSE 1017,6 10
19.09.2018 03:00:00 14,2 12,2 5 3 - - S 1017,7 10
19.09.2018 02:00:00 15,0 12,9 5 3 - - S 1017,5 10
19.09.2018 01:00:00 16,5 12,8 4 2 - - W 1017,4 10
19.09.2018 00:00:00 16,6 12,2 8 4 - - WNW 1017,0 10
18.09.2018 23:00:00 17,7 12,4 2 1 - - SW 1016,3 10
18.09.2018 22:00:00 18,7 12,1 2 1 - - S 1015,9 10
18.09.2018 21:00:00 21,8 11,9 0 0 - - N 1015,2 10
18.09.2018 20:00:00 24,6 11,5 16 9 - - W 1014,2 10
18.09.2018 19:00:00 26,3 11,1 28 15 - - W 1013,3 10
18.09.2018 18:00:00 28,4 11,6 28 15 47 25 W 1012,7 10
18.09.2018 17:00:00 29,4 11,4 26 14 - - W 1012,4 10
18.09.2018 16:00:00 30,0 10,5 22 12 - - SW 1012,0 10
18.09.2018 15:00:00 30,2 10,4 26 14 - - WSW 1011,8 10
18.09.2018 14:00:00 29,3 11,8 21 11 - - SW 1012,0 10
18.09.2018 13:00:00 28,4 13,8 21 11 - - SW 1012,2 10
18.09.2018 12:00:00 26,7 13,8 22 12 - - WSW 1012,6 10
18.09.2018 11:00:00 27,0 13,3 18 10 - - WSW 1012,3 10
18.09.2018 10:00:00 25,6 11,1 13 7 - - SW 1011,8 10
18.09.2018 09:00:00 23,9 10,8 9 5 - - S 1011,7 10
18.09.2018 08:00:00 22,2 10,3 9 5 - - S 1011,7 10
18.09.2018 07:00:00 21,5 10,1 4 2 - - SSE 1011,8 10
18.09.2018 06:00:00 18,8 10,4 4 2 - - S 1012,2 10
18.09.2018 05:00:00 18,9 10,2 4 2 - - SE 1012,5 10
18.09.2018 04:00:00 16,7 9,8 4 2 - - SE 1012,9 10
18.09.2018 03:00:00 15,7 8,1 4 2 - - ESE 1013,4 40
18.09.2018 02:00:00 17,3 8,2 7 4 - - ESE 1013,8 35
18.09.2018 01:00:00 18,5 7,9 5 3 - - SE 1014,2 10
18.09.2018 00:00:00 18,1 7,4 8 4 - - SSE 1014,6 10
17.09.2018 23:00:00 20,2 7,2 8 4 - - SSE 1015,2 10
17.09.2018 22:00:00 18,4 8,2 9 5 - - S 1015,5 10
17.09.2018 21:00:00 17,7 8,7 2 1 - - ESE 1015,6 10
17.09.2018 20:00:00 21,4 8,3 0 0 - - N 1015,7 10
17.09.2018 19:00:00 25,6 8,0 5 3 - - NNE 1015,8 10
17.09.2018 18:00:00 27,2 6,8 5 3 - - W 1016,0 10
17.09.2018 17:00:00 27,5 5,1 8 4 - - WSW 1016,5 10

tt = Température de l'air
td = dewpoint
ff = Vitesse du vent
fx = gusts
dd = Direction du vent
ppp = reduced air pressure
vv = visibility

stations d'obs. à proximité